DW2659 Weather Reports


time (UTC)temp
C
wind
direction
speed
KPH
gust
KPH
rain 1hr
cm
rain 24hr
cm
rain mn
cm
humidity
%
barometer
mb
20260507075902 16 173 0.0 1.6 0.03 5.03 1.50 89 1010.8
20260507075403 16 211 1.6 3.2 0.00 5.00 1.47 89 1010.8
20260507074904 16 211 0.0 1.6 0.00 5.00 1.47 89 1010.8
20260507074402 16 211 0.0 3.2 0.03 5.00 1.47 89 1010.2
20260507073404 16 211 0.0 0.0 0.03 5.00 1.47 89 1010.2
20260507072402 16 211 0.0 0.0 0.03 5.00 1.47 89 1010.6
20260507071403 16 211 0.0 0.0 0.03 5.00 1.47 89 1010.6
20260507070404 16 211 0.0 0.0 0.03 5.00 1.47 89 1010.6
20260507065902 16 211 0.0 0.0 0.03 5.00 1.47 89 1011.0
20260507065403 16 211 0.0 1.6 0.03 5.00 1.47 89 1011.0
20260507064903 16 211 0.0 1.6 0.08 5.00 1.47 89 1011.0
20260507064403 17 211 0.0 0.0 0.46 4.98 1.45 89 1011.0
20260507063902 17 211 1.6 3.2 0.56 4.98 1.45 89 1011.0
20260507063403 17 211 0.0 1.6 0.56 4.98 1.45 89 1011.0
20260507062903 17 211 0.0 1.6 0.56 4.98 1.45 88 1011.4
20260507062403 17 210 1.6 3.2 0.56 4.98 1.45 88 1011.1
20260507060903 17 271 0.0 1.6 0.89 4.98 1.45 89 1011.5
20260507060404 17 271 0.0 3.2 0.91 4.98 1.45 88 1011.5
20260507055902 17 244 3.2 8.0 0.91 4.98 1.45 88 1011.8
20260507055403 17 204 1.6 3.2 0.91 4.98 1.45 88 1012.4
20260507054904 17 95 1.6 12.9 0.86 4.93 1.40 88 1012.4
20260507054402 17 222 6.4 11.3 0.51 4.52 0.99 88 1011.0
20260507053903 17 250 3.2 8.0 0.51 4.42 0.89 88 1011.0
20260507053404 17 153 3.2 12.9 0.64 4.42 0.89 89 1011.0
20260507052902 17 142 3.2 4.8 0.64 4.42 0.89 89 1011.5
20260507052403 17 176 3.2 8.0 0.64 4.42 0.89 89 1011.5
20260507051904 17 237 6.4 9.7 0.61 4.39 0.86 89 1011.5
20260507051403 17 149 3.2 9.7 0.33 4.11 0.58 89 1011.5
20260507050902 17 260 4.8 9.7 0.30 4.09 0.56 89 1011.5
20260507050404 17 136 1.6 3.2 0.30 4.06 0.53 89 1011.5
20260507045902 17 124 0.0 1.6 0.58 4.06 0.53 89 1012.4
20260507045403 17 124 0.0 1.6 0.71 4.06 0.53 89 1012.4
20260507044403 17 147 0.0 1.6 0.86 4.01 0.48 89 1012.3
20260507043902 17 146 0.0 3.2 0.84 3.91 0.38 89 1012.4
20260507043404 17 251 1.6 3.2 0.74 3.78 0.25 89 1012.4
20260507042903 17 220 0.0 0.0 0.74 3.78 0.25 89 1011.8
20260507042403 17 220 0.0 3.2 0.74 3.78 0.25 89 1011.8
20260507041903 17 220 1.6 1.6 0.74 3.78 0.25 89 1011.8
20260507041403 17 220 0.0 1.6 0.74 3.78 0.25 88 1012.5
20260507040903 17 198 1.6 3.2 0.74 3.78 0.25 88 1012.5
20260507040404 17 267 0.0 3.2 0.71 3.76 0.23 89 1012.5
20260507035903 17 220 1.6 3.2 0.48 3.53 3.53 88 1012.5
20260507035403 17 175 1.6 3.2 0.33 3.38 3.38 89 1012.5
20260507034903 17 256 0.0 3.2 0.30 3.35 3.35 89 1012.5
20260507034404 17 256 0.0 1.6 0.15 3.17 3.17 89 1012.5
20260507033903 17 256 1.6 3.2 0.08 3.10 3.10 89 1012.5
20260507033404 17 126 0.0 1.6 0.03 3.05 3.05 89 1012.5
20260507032403 17 126 0.0 3.2 0.03 3.05 3.05 89 1012.2
20260507031904 17 93 0.0 1.6 0.03 3.05 3.05 89 1012.2
20260507031402 17 93 0.0 1.6 0.03 3.05 3.05 89 1012.6
20260507030903 17 93 4.8 4.8 0.03 3.05 3.05 88 1012.6
20260507030404 17 258 1.6 3.2 0.03 3.05 3.05 88 1012.6
20260507025902 17 240 0.0 1.6 0.03 3.05 3.05 88 1012.6
20260507025403 17 240 1.6 1.6 0.03 3.05 3.05 88 1012.6
20260507024904 17 240 0.0 3.2 0.03 3.05 3.05 88 1012.6
20260507024403 17 220 1.6 3.2 0.00 3.02 3.02 88 1012.6
20260507023903 17 133 1.6 1.6 0.00 3.02 3.02 88 1012.6
20260507023404 17 133 0.0 1.6 0.00 3.02 3.02 88 1012.6
20260507022903 17 133 0.0 0.0 0.00 3.02 3.02 88 1012.6
20260507021904 17 133 0.0 0.0 0.00 3.02 3.02 88 1012.6
20260507021404 17 133 0.0 0.0 0.00 3.02 3.02 88 1012.6
20260507020404 17 133 0.0 1.6 0.00 3.02 3.02 88 1012.6
20260507015903 17 133 0.0 1.6 0.00 3.02 3.02 88 1012.6
20260507015403 17 133 0.0 1.6 0.00 3.02 3.02 88 1012.6
20260507014904 17 133 0.0 0.0 0.00 3.02 3.02 88 1012.6
20260507014402 17 133 0.0 0.0 0.00 3.02 3.02 88 1012.4
20260507013903 17 133 0.0 0.0 0.00 3.02 3.02 88 1012.4
20260507013404 17 133 0.0 3.2 0.00 3.02 3.02 88 1012.1
20260507012903 17 202 1.6 3.2 0.00 3.02 3.02 88 1012.1
20260507012403 17 202 0.0 3.2 0.00 3.02 3.02 88 1012.0
20260507011904 17 247 1.6 3.2 0.03 3.02 3.02 88 1012.0
20260507011403 17 150 0.0 1.6 0.03 3.02 3.02 88 1012.3
20260507010903 17 150 0.0 0.0 0.08 3.02 3.02 88 1012.3
20260507010404 17 150 0.0 1.6 0.28 3.02 3.02 88 1012.3
20260507005403 17 182 0.0 1.6 0.30 3.02 3.02 88 1012.3
20260507004904 17 182 0.0 3.2 0.30 3.02 3.02 88 1012.3
20260507004403 17 200 3.2 4.8 0.30 3.02 3.02 88 1012.0
20260507003404 17 270 0.0 1.6 0.30 3.02 3.02 88 1012.3
20260507002403 17 270 1.6 1.6 0.30 3.02 3.02 88 1012.7
20260507001904 17 207 3.2 8.0 0.28 3.00 3.00 88 1012.7
20260507001402 17 174 1.6 4.8 0.30 3.00 3.00 88 1013.1
20260507000903 18 163 0.0 1.6 0.28 2.95 2.95 88 1013.1
20260507000405 18 192 0.0 1.6 0.10 2.74 2.74 88 1013.1
20260506235902 18 192 0.0 1.6 0.20 2.72 2.72 88 1012.5
20260506235403 18 192 0.0 1.6 0.36 2.72 2.72 88 1012.5
20260506234403 18 192 0.0 1.6 0.41 2.72 2.72 88 1012.1
20260506233903 18 192 0.0 0.0 0.53 2.72 2.72 88 1012.1
20260506233405 18 192 0.0 1.6 0.61 2.72 2.72 88 1012.1
20260506232903 18 192 0.0 0.0 0.64 2.72 2.72 88 1012.1
20260506231904 18 192 0.0 1.6 0.69 2.72 2.72 88 1012.1
20260506231403 18 192 0.0 3.2 0.69 2.69 2.69 88 1012.3
20260506230903 18 192 0.0 3.2 0.69 2.67 2.67 88 1012.3
20260506230404 18 166 3.2 4.8 0.66 2.64 2.64 88 1012.3
20260506225903 18 121 0.0 1.6 0.56 2.51 2.51 88 1011.9
20260506225403 18 161 0.0 1.6 0.41 2.36 2.36 87 1011.9
20260506224905 18 149 0.0 1.6 0.38 2.34 2.34 87 1011.9
20260506224403 18 149 1.6 8.0 0.36 2.31 2.31 87 1010.9
20260506223903 18 273 0.0 1.6 0.23 2.18 2.18 87 1010.9
20260506223404 18 273 1.6 3.2 0.15 2.11 2.11 87 1010.9
20260506222904 18 328 0.0 3.2 0.13 2.08 2.08 87 1010.9
20260506222403 18 303 1.6 3.2 0.10 2.06 2.06 87 1011.5
20260506221403 18 260 1.6 1.6 0.05 2.01 2.01 87 1011.5
20260506220903 18 260 0.0 3.2 0.03 1.98 1.98 87 1011.6
20260506220404 18 246 1.6 4.8 0.03 1.98 1.98 87 1011.6
20260506215903 18 241 0.0 0.0 0.00 1.96 1.96 86 1011.1
20260506215403 18 241 0.0 0.0 0.00 1.96 1.96 86 1011.1
20260506214904 18 241 0.0 0.0 0.00 1.96 1.96 86 1011.1
20260506214403 18 241 0.0 0.0 0.00 1.96 1.96 87 1011.1
20260506213903 18 241 0.0 3.2 0.03 1.96 1.96 86 1011.1
20260506212903 18 241 0.0 1.6 0.13 1.96 1.96 86 1011.6
20260506212403 18 241 0.0 0.0 0.18 1.96 1.96 87 1011.6
20260506211905 18 241 0.0 0.0 0.18 1.96 1.96 87 1011.6
20260506211403 18 241 0.0 1.6 0.18 1.96 1.96 86 1011.5
20260506210903 18 241 1.6 3.2 0.23 1.96 1.96 86 1011.5
20260506210405 18 208 1.6 3.2 0.25 1.96 1.96 86 1011.5
20260506205903 18 195 0.0 8.0 0.28 1.96 1.96 86 1011.9
20260506205403 18 240 3.2 9.7 0.28 1.96 1.96 85 1011.9
20260506204904 18 200 4.8 11.3 0.28 1.96 1.96 85 1011.9
20260506204403 18 122 4.8 9.7 0.38 1.96 1.96 85 1012.1
20260506203903 18 148 3.2 8.0 0.41 1.93 1.93 85 1012.1
20260506203404 18 165 3.2 9.7 0.61 1.91 1.91 85 1012.1
20260506202904 18 259 3.2 4.8 1.30 1.83 1.83 85 1012.2
20260506202404 18 191 3.2 4.8 1.35 1.78 1.78 84 1012.2
20260506201904 18 213 3.2 12.9 1.35 1.78 1.78 85 1012.2
20260506201403 18 189 4.8 11.3 1.35 1.78 1.78 85 1012.5
20260506200904 18 240 3.2 11.3 1.30 1.73 1.73 85 1012.5
20260506200405 18 186 4.8 11.3 1.27 1.70 1.70 85 1012.2
20260506195903 18 218 6.4 12.9 1.24 1.68 1.68 85 1012.2
20260506195403 18 266 6.4 12.9 1.24 1.68 1.68 85 1012.2
20260506194904 18 192 3.2 4.8 1.24 1.68 1.68 85 1012.2
20260506194403 18 147 4.8 9.7 1.14 1.57 1.57 85 1012.7
20260506193903 18 256 4.8 8.0 1.09 1.52 1.52 84 1013.5
20260506192903 19 290 4.8 19.3 0.10 0.53 0.53 82 1012.3
20260506192403 20 11 1.6 4.8 0.00 0.43 0.43 84 1012.3
20260506191903 20 321 0.0 3.2 0.00 0.43 0.43 85 1012.3
20260506190903 20 198 0.0 1.6 0.00 0.43 0.43 85 1012.6
20260506190403 20 198 0.0 0.0 0.00 0.43 0.43 85 1012.6
20260506185904 21 198 0.0 0.0 0.00 0.43 0.43 85 1012.6
20260506185403 21 198 0.0 0.0 0.00 0.43 0.43 84 1012.6
20260506184904 21 198 0.0 1.6 0.00 0.43 0.43 84 1012.6
20260506184404 21 198 0.0 0.0 0.00 0.43 0.43 84 1012.8
20260506183903 21 198 0.0 0.0 0.00 0.43 0.43 83 1012.8
20260506182904 21 198 0.0 1.6 0.00 0.43 0.43 83 1013.0
20260506182403 21 198 0.0 0.0 0.00 0.43 0.43 83 1013.1
20260506181904 21 198 0.0 1.6 0.00 0.43 0.43 82 1013.3
20260506181404 21 164 1.6 3.2 0.00 0.43 0.43 82 1013.3
20260506180904 21 196 0.0 3.2 0.00 0.43 0.43 82 1013.3
20260506180403 21 238 1.6 4.8 0.00 0.43 0.43 82 1013.3
20260506175903 21 136 1.6 3.2 0.00 0.43 0.43 82 1013.3
20260506175404 21 213 1.6 3.2 0.00 0.43 0.43 82 1013.3
20260506174904 21 251 1.6 4.8 0.00 0.43 0.43 82 1013.3
20260506174403 21 233 1.6 4.8 0.00 0.43 0.43 81 1013.4
20260506173904 21 236 1.6 4.8 0.00 0.43 0.43 81 1013.4
20260506173403 21 251 0.0 4.8 0.00 0.43 0.43 82 1013.4
20260506172904 21 253 4.8 9.7 0.00 0.43 0.43 81 1013.0
20260506172405 20 227 3.2 8.0 0.00 0.43 0.43 82 1013.0
20260506171903 20 226 4.8 9.7 0.00 0.43 0.43 82 1013.0
20260506171403 20 203 3.2 11.3 0.00 0.43 0.43 82 1013.0
20260506170904 20 194 6.4 19.3 0.00 0.43 0.43 83 1013.0
20260506170404 20 227 3.2 11.3 0.00 0.43 0.43 83 1013.0
20260506165904 20 242 4.8 9.7 0.00 0.43 0.43 83 1013.1
20260506165405 20 199 3.2 9.7 0.00 0.43 0.43 83 1013.1
20260506164903 20 191 4.8 11.3 0.00 0.43 0.43 83 1013.1
20260506163905 20 215 4.8 14.5 0.00 0.43 0.43 83 1013.1
20260506163404 19 224 6.4 12.9 0.00 0.43 0.43 83 1013.1
20260506162404 19 175 4.8 20.9 0.00 0.43 0.43 84 1013.2
20260506161903 19 177 3.2 12.9 0.00 0.43 0.43 85 1013.2
20260506160905 19 220 4.8 14.5 0.00 0.43 0.43 85 1013.2
20260506160404 19 284 3.2 4.8 0.03 0.43 0.43 85 1013.2
20260506155903 19 110 3.2 9.7 0.08 0.43 0.43 85 1013.4
20260506155404 19 231 3.2 8.0 0.10 0.43 0.43 85 1013.4
20260506154904 18 140 4.8 12.9 0.15 0.43 0.43 85 1013.4
20260506153904 19 239 1.6 8.0 0.23 0.43 0.43 86 1013.4
20260506152903 18 260 3.2 4.8 0.30 0.43 0.43 87 1012.6
20260506152405 18 5 0.0 0.0 0.30 0.43 0.43 86 1013.1
20260506151903 18 5 1.6 4.8 0.33 0.43 0.43 86 1013.1
20260506151403 18 340 0.0 3.2 0.33 0.43 0.43 86 1013.9
20260506150905 18 227 3.2 11.3 0.36 0.43 0.43 85 1013.9
20260506150404 18 235 3.2 19.3 0.33 0.41 0.41 85 1013.6
20260506145903 18 218 4.8 11.3 0.28 0.36 0.36 85 1014.5
20260506145405 18 235 4.8 9.7 0.25 0.33 0.33 84 1014.7
20260506144903 18 159 4.8 11.3 0.20 0.28 0.28 84 1014.7
20260506143904 18 233 1.6 11.3 0.18 0.20 0.20 84 1014.2
20260506143403 18 236 9.7 19.3 0.15 0.18 0.18 84 1014.2
20260506142904 18 250 1.6 4.8 0.10 0.13 0.13 84 1013.8
20260506142406 18 179 1.6 3.2 0.13 0.13 0.13 84 1013.8
20260506141903 18 179 1.6 3.2 0.10 0.10 0.10 84 1013.8
20260506140904 18 257 1.6 4.8 0.08 0.08 0.08 83 1013.5
20260506135905 18 276 1.6 3.2 0.08 0.08 0.08 83 1013.5
20260506134904 18 193 0.0 3.2 0.08 0.08 0.08 82 1013.5
20260506134405 18 269 0.0 1.6 0.08 0.08 0.08 82 1013.4
20260506133903 18 269 0.0 1.6 0.03 0.03 0.03 80 1013.4
20260506133405 18 269 0.0 1.6 0.03 0.03 0.03 80 1013.4
20260506132904 18 269 0.0 4.8 0.03 0.03 0.03 78 1013.2
20260506132404 18 194 1.6 3.2 0.00 0.00 0.00 76 1013.2
20260506131903 18 194 0.0 3.2 0.00 0.00 0.00 76 1013.2
20260506131405 18 185 1.6 4.8 0.00 0.00 0.00 75 1012.8
20260506130903 18 230 0.0 1.6 0.00 0.00 0.00 74 1012.8
20260506130404 18 257 0.0 3.2 0.00 0.00 0.00 73 1012.8
20260506125404 18 156 3.2 8.0 0.00 0.00 0.00 73 1012.8
20260506123904 18 232 6.4 11.3 0.00 0.00 0.00 72 1012.6
20260506123405 18 166 3.2 8.0 0.00 0.00 0.00 72 1012.2
20260506122903 18 236 3.2 4.8 0.00 0.00 0.00 72 1012.2
20260506122404 18 227 3.2 8.0 0.00 0.00 0.00 72 1012.2
20260506121905 18 225 3.2 9.7 0.00 0.00 0.00 72 1012.2
20260506121404 18 232 3.2 8.0 0.00 0.00 0.00 72 1012.3
20260506120903 18 175 4.8 12.9 0.00 0.00 0.00 72 1012.3
20260506115904 18 250 1.6 8.0 0.00 0.00 0.00 72 1012.0
20260506115404 18 227 4.8 8.0 0.00 0.00 0.00 72 1012.0
20260506114904 18 239 3.2 11.3 0.00 0.00 0.00 72 1012.0
20260506114405 18 211 3.2 11.3 0.00 0.00 0.00 72 1012.2
20260506113904 18 214 3.2 8.0 0.00 0.00 0.00 71 1012.2
20260506113404 18 242 3.2 4.8 0.00 0.00 0.00 71 1012.3
20260506112905 18 247 3.2 4.8 0.00 0.00 0.00 71 1012.0
20260506112404 18 263 1.6 4.8 0.00 0.00 0.00 70 1012.0
20260506111904 18 221 4.8 8.0 0.00 0.00 0.00 70 1012.0
20260506111404 18 186 4.8 11.3 0.00 0.00 0.00 70 1011.4
20260506110904 18 240 4.8 11.3 0.00 0.00 0.00 70 1011.4
20260506110404 18 219 4.8 9.7 0.00 0.00 0.00 70 1011.4
20260506105404 19 188 4.8 11.3 0.00 0.00 0.00 69 1011.4
20260506104904 19 237 3.2 4.8 0.00 0.00 0.00 69 1011.4
20260506103905 19 216 3.2 4.8 0.00 0.00 0.00 69 1011.2
20260506103404 19 248 3.2 4.8 0.00 0.00 0.00 69 1011.2
20260506102904 19 200 1.6 4.8 0.00 0.00 0.00 69 1011.4
20260506102405 19 147 1.6 4.8 0.00 0.00 0.00 69 1011.4
20260506101903 19 249 3.2 4.8 0.00 0.00 0.00 69 1011.4
20260506100905 19 167 0.0 3.2 0.00 0.00 0.00 68 1011.7
20260506100404 19 232 1.6 3.2 0.00 0.00 0.00 68 1011.7
20260506095904 19 232 0.0 1.6 0.00 0.00 0.00 68 1011.4
20260506095404 19 232 1.6 3.2 0.00 0.00 0.00 68 1011.4
20260506094904 19 225 1.6 4.8 0.00 0.00 0.00 67 1011.4
20260506094404 19 186 1.6 4.8 0.00 0.00 0.00 67 1010.8
20260506093905 19 265 0.0 4.8 0.00 0.00 0.00 67 1010.8
20260506093404 19 240 1.6 3.2 0.00 0.00 0.00 67 1010.8
20260506092405 19 190 1.6 3.2 0.00 0.00 0.00 66 1010.8
20260506091904 19 230 3.2 4.8 0.00 0.00 0.00 65 1010.8
20260506091404 19 225 1.6 4.8 0.00 0.00 0.00 65 1010.9
20260506090905 19 165 3.2 4.8 0.00 0.00 0.00 65 1010.9
20260506090404 19 211 3.2 4.8 0.00 0.00 0.00 65 1010.9
20260506085904 19 179 3.2 8.0 0.00 0.00 0.00 64 1010.8
20260506085405 19 218 3.2 4.8 0.00 0.00 0.00 64 1010.8
20260506084905 19 238 1.6 3.2 0.00 0.00 0.00 64 1010.8
20260506084404 19 250 3.2 8.0 0.00 0.00 0.00 64 1010.8
20260506083905 19 232 3.2 4.8 0.00 0.00 0.00 64 1010.8
20260506083404 19 243 1.6 4.8 0.00 0.00 0.00 63 1010.8
20260506082904 19 252 1.6 8.0 0.00 0.00 0.00 63 1010.9
20260506082405 19 228 3.2 12.9 0.00 0.00 0.00 62 1010.9
20260506081904 19 206 3.2 9.7 0.00 0.00 0.00 62 1010.9
20260506081404 19 216 3.2 8.0 0.00 0.00 0.00 62 1010.7
20260506080905 19 226 6.4 12.9 0.00 0.00 0.00 61 1010.7
20260506080404 19 234 4.8 11.3 0.00 0.00 0.00 61 1010.7